Ocean Fresh — WDC4996 — position and weather

sailwx.info

Track history (hours):
 
Tides and Currents Weather Stations Pressure Air Temp Water Temp Dewpoint Dewpoint Depression Visibility Wind Speed Wind Dir Waves Ship Positions

Ocean Fresh

More information available from US FCC via Universal Licensing System and Coast Guard Vessel Documentation Center.

Last reported at 2014-Aug-24 13:33 UTC. Time now 2014-Sep-22 20:19 UTC.
Position N 47°40' W 122°23'.
Warning: this ship's position is 29 days out of date.

Length 67 m; draft 4.5 m.

Type: Ship (hazmat cat A). MMSI: 367773000.

Date/timePositionNaut miles runAvg speedWind from/ knotsBaromVisibWave heightAir tempDewpointWater temp
2014-Aug-24 13:33N 47°40' W 122°23'1 0.7
2014-Aug-24 12:33N 47°40' W 122°24'5 4.6
2014-Aug-24 11:33N 47°45' W 122°24'5 5.3
2014-Aug-24 10:33N 47°50' W 122°26'2 2.4
2014-Aug-24 09:33N 47°52' W 122°27'6 6.3
2014-Aug-24 08:33N 47°57' W 122°34'6 6.0
2014-Aug-24 07:32N 48°02' W 122°39'5 5.4
2014-Aug-24 06:32N 48°07' W 122°41'7 6.9
2014-Aug-24 05:33N 48°11' W 122°49'7 7.4
2014-Aug-24 04:33N 48°18' W 122°48'9 8.8
2014-Aug-24 03:33N 48°27' W 122°45'9 9.4
2014-Aug-24 02:33N 48°36' W 122°45'8 8.3
2014-Aug-24 01:33N 48°44' W 122°47'9 9.5
2014-Aug-24 00:33N 48°50' W 122°59'9 9.2
2014-Aug-23 23:33N 48°55' W 123°10'10 9.6
2014-Aug-23 22:33N 49°02' W 123°20'9 8.9
2014-Aug-23 21:33N 49°08' W 123°31'10 9.9
2014-Aug-23 20:33N 49°15' W 123°41'1010.0
2014-Aug-23 19:33N 49°21' W 123°53'17210.8
2014-Aug-23 03:33N 50°60' W 127°34'1111.5
2014-Aug-23 02:33N 51°07' W 127°47'1210.9
2014-Aug-23 01:25N 51°19' W 127°52'1011.7
2014-Aug-23 00:33N 51°29' W 127°52'2511.9
2014-Aug-22 22:30N 51°54' W 127°56'1111.0
2014-Aug-22 21:30N 52°05' W 127°59'8 8.2
2014-Aug-22 20:33N 52°11' W 128°07'14910.6
2014-Aug-22 06:33N 54°13' W 130°29'1211.7
2014-Aug-22 05:32N 54°23' W 130°38'288 8.5
2014-Aug-20 19:26N 58°17' W 135°43'1010.7
2014-Aug-20 18:29N 58°20' W 136°01'  
Track history (hours):
 
Tides and Currents Weather Stations Pressure Air Temp Water Temp Dewpoint Dewpoint Depression Visibility Wind Speed Wind Dir Waves Ship Positions

Ocean Fresh

More information available from US FCC via Universal Licensing System and Coast Guard Vessel Documentation Center.

Last reported at 2014-Aug-24 13:33 UTC. Time now 2014-Sep-22 20:19 UTC.
Position N 47°40' W 122°23'.
Warning: this ship's position is 29 days out of date.

Length 67 m; draft 4.5 m.

Type: Ship (hazmat cat A). MMSI: 367773000.

Date/timePositionNaut miles runAvg speedWind from/ knotsBaromVisibWave heightAir tempDewpointWater temp
2014-Aug-24 13:33N 47°40' W 122°23'1 0.7
2014-Aug-24 12:33N 47°40' W 122°24'5 4.6
2014-Aug-24 11:33N 47°45' W 122°24'5 5.3
2014-Aug-24 10:33N 47°50' W 122°26'2 2.4
2014-Aug-24 09:33N 47°52' W 122°27'6 6.3
2014-Aug-24 08:33N 47°57' W 122°34'6 6.0
2014-Aug-24 07:32N 48°02' W 122°39'5 5.4
2014-Aug-24 06:32N 48°07' W 122°41'7 6.9
2014-Aug-24 05:33N 48°11' W 122°49'7 7.4
2014-Aug-24 04:33N 48°18' W 122°48'9 8.8
2014-Aug-24 03:33N 48°27' W 122°45'9 9.4
2014-Aug-24 02:33N 48°36' W 122°45'8 8.3
2014-Aug-24 01:33N 48°44' W 122°47'9 9.5
2014-Aug-24 00:33N 48°50' W 122°59'9 9.2
2014-Aug-23 23:33N 48°55' W 123°10'10 9.6
2014-Aug-23 22:33N 49°02' W 123°20'9 8.9
2014-Aug-23 21:33N 49°08' W 123°31'10 9.9
2014-Aug-23 20:33N 49°15' W 123°41'1010.0
2014-Aug-23 19:33N 49°21' W 123°53'17210.8
2014-Aug-23 03:33N 50°60' W 127°34'1111.5
2014-Aug-23 02:33N 51°07' W 127°47'1210.9
2014-Aug-23 01:25N 51°19' W 127°52'1011.7
2014-Aug-23 00:33N 51°29' W 127°52'2511.9
2014-Aug-22 22:30N 51°54' W 127°56'1111.0
2014-Aug-22 21:30N 52°05' W 127°59'8 8.2
2014-Aug-22 20:33N 52°11' W 128°07'14910.6
2014-Aug-22 06:33N 54°13' W 130°29'1211.7
2014-Aug-22 05:32N 54°23' W 130°38'288 8.5
2014-Aug-20 19:26N 58°17' W 135°43'1010.7
2014-Aug-20 18:29N 58°20' W 136°01'  

Dump ship's entire track history